Location: Seattle
(47.6064°N, 122.3308°W)
Time: 04:18:45
(UTC-08:00)

S-56A Canister/Altair - Pass Details

Date: 02 December 2020
Orbit: 633 x 2499 km, 38.9° (Epoch: 23 January)

Event Time Altitude Azimuth Distance (km) Brightness Sun altitude
Rises 21:32:46 0° 266° (W) 5,363 12.3 -51.2°
Reaches altitude 10° 21:36:54 10° 261° (W) 4,073 11.5 -51.9°
Enters shadow 21:40:24 21° 252° (WSW) 3,001 10.7 -52.4°
Maximum altitude 21:46:18 44° 194° (SSW) 1,726 - -53.2°
Drops below altitude 10° 21:52:39 10° 124° (SE) 2,763 - -54.1°
Sets 21:54:58 0° 117° (ESE) 3,522 - -54.4°
